Voltar ao catálogo

THORAD DELTA 1 DEB

AtivoSSO
NORAD 8145·DEBRIS·🇺🇸 United States

Lançado Nov 15, 1974 de Vandenberg Space Force Base

Loading…

Próximas Passagens (próximas 24 horas)

TLE

AtualizadoSource: Space-Track

Época: Sep 14, 2026, 01:19 UTC

1 08145U 74089P   26257.05541707  .00000055  00000-0  55215-3 0  9998
2 08145 101.0787  98.6557 0027345 321.7162 193.1921 12.60663694381457

Acompanhe THORAD DELTA 1 DEB em tempo real com AllMySat

Download on the App Store